Weather History for KMYR - October, 2012

Change the Weather History Date:

Sunday, October 28, 2012

  Actual Average Record
Temperature  
Mean Temperature 62 °F -  
Max Temperature 66 °F 70 °F 83 °F (1991)
Min Temperature 57 °F 50 °F 32 °F (2001)
Degree Days  
Heating Degree Days 2    
Growing Degree Days 12 (Base 50)    
Moisture  
Dew Point 54 °F    
Average Humidity 70    
Maximum Humidity 77    
Minimum Humidity 60    
Precipitation  
Precipitation 0.00 in - - ()
Sea Level Pressure  
Sea Level Pressure 29.53 in    
Wind  
Wind Speed 19 mph (NNW)    
Max Wind Speed 24 mph    
Max Gust Speed 33 mph    
Visibility 10 miles    
Events      
Averages and records for this station are not official NWS values.
T = Trace of Precipitation, MM = Missing Value Source: NWS Daily Summary

Daily Weather History Graph

Daily Weather History Graph

Search for Another Location

Airport or City:

Trip Planner

Search our weather history database for the weather conditions in past years. The results will help you decide how hot, cold, wet, or windy it might be!

Date:

Astronomy

Oct. 28, 2012 Rise Set
Actual Time 7:31 AM EDT 6:26 PM EDT
Civil Twilight 7:06 AM EDT 6:52 PM EDT
Nautical Twilight 6:36 AM EDT 7:21 PM EDT
Astronomical Twilight 6:07 AM EDT 7:50 PM EDT
Moon 5:43 PM EDT (10/28) 6:24 AM EDT (10/28)
Length of Visible Light 11h 46m
Length of Day
10h 55m
Waxing Gibbous, 99% of the Moon is Illuminated
Oct 28
Waxing Gibbous
Oct 29
Full
Nov 6
Last Quarter
Nov 13
New
Nov 20
First Quarter

Hourly Weather History & Observations

Time (EDT) Temp. Dew Point Humidity Pressure Visibility Wind Dir Wind Speed Gust Speed Precip Events Conditions
12:15 AM 64.4 °F 57.2 °F 77% 29.53 in 10.0 mi NNW 19.6 mph 24.2 mph N/A   Overcast
12:35 AM 64.4 °F 57.2 °F 77% 29.52 in 10.0 mi NNW 24.2 mph 33.4 mph N/A   Overcast
12:55 AM 64.4 °F 57.2 °F 77% 29.52 in 10.0 mi North 23.0 mph 29.9 mph N/A   Overcast
1:15 AM 64.4 °F 57.2 °F 77% 29.52 in 10.0 mi NNW 18.4 mph 31.1 mph N/A   Overcast
1:35 AM 64.4 °F 57.2 °F 77% 29.52 in 10.0 mi NNW 17.3 mph 25.3 mph N/A   Overcast
1:55 AM 64.4 °F 57.2 °F 77% 29.51 in 10.0 mi North 20.7 mph 32.2 mph N/A   Overcast
2:15 AM 64.4 °F 57.2 °F 77% 29.52 in 10.0 mi NNW 24.2 mph 28.8 mph N/A   Overcast
2:35 AM 64.4 °F 57.2 °F 77% 29.52 in 10.0 mi NNW 19.6 mph 26.5 mph N/A   Overcast
2:55 AM 64.4 °F 55.4 °F 73% 29.51 in 10.0 mi North 24.2 mph 33.4 mph N/A   Mostly Cloudy
3:15 AM 64.4 °F 55.4 °F 73% 29.51 in 10.0 mi NNW 23.0 mph 28.8 mph N/A   Scattered Clouds
3:35 AM 64.4 °F 55.4 °F 73% 29.50 in 10.0 mi NNW 24.2 mph 31.1 mph N/A   Scattered Clouds
3:55 AM 64.4 °F 55.4 °F 73% 29.50 in 10.0 mi NNW 23.0 mph 33.4 mph N/A   Mostly Cloudy
4:15 AM 64.4 °F 55.4 °F 73% 29.50 in 10.0 mi NNW 18.4 mph 24.2 mph N/A   Overcast
4:35 AM 64.4 °F 55.4 °F 73% 29.51 in 10.0 mi NNW 20.7 mph 27.6 mph N/A   Overcast
4:55 AM 64.4 °F 53.6 °F 68% 29.52 in 10.0 mi NNW 13.8 mph 25.3 mph N/A   Overcast
5:15 AM 62.6 °F 53.6 °F 72% 29.50 in 10.0 mi NNW 21.9 mph 26.5 mph N/A   Mostly Cloudy
5:35 AM 62.6 °F 53.6 °F 72% 29.51 in 10.0 mi NNW 19.6 mph 31.1 mph N/A   Overcast
5:50 AM 62.6 °F 53.6 °F 72% 29.51 in 10.0 mi NNW 19.6 mph 26.5 mph N/A   Mostly Cloudy
6:50 AM 62.6 °F 53.6 °F 72% 29.51 in 10.0 mi North 18.4 mph 26.5 mph N/A   Partly Cloudy
7:51 AM 60.8 °F 51.8 °F 72% 29.53 in 10.0 mi North 18.4 mph 25.3 mph N/A   Mostly Cloudy
8:45 AM 60.8 °F 51.8 °F 72% 29.54 in 10.0 mi North 17.3 mph 24.2 mph N/A   Mostly Cloudy
9:45 AM 62.6 °F 51.8 °F 68% 29.55 in 10.0 mi North 19.6 mph - N/A   Mostly Cloudy
10:55 AM 62.6 °F 51.8 °F 68% 29.54 in 10.0 mi North 19.6 mph 25.3 mph N/A   Mostly Cloudy
12:50 PM 66.2 °F 51.8 °F 60% 29.53 in 10.0 mi North 18.4 mph - N/A   Mostly Cloudy
1:50 PM 66.2 °F 51.8 °F 60% 29.52 in 10.0 mi North 19.6 mph 25.3 mph N/A   Mostly Cloudy
2:50 PM 66.2 °F 51.8 °F 60% 29.52 in 10.0 mi NNW 17.3 mph 25.3 mph N/A   Mostly Cloudy
3:45 PM 66.2 °F 51.8 °F 60% 29.52 in 10.0 mi North 16.1 mph 27.6 mph N/A   Mostly Cloudy
5:45 PM 66.2 °F 51.8 °F 60% 29.53 in 10.0 mi NNW 11.5 mph 20.7 mph N/A   Mostly Cloudy
6:45 PM 64.4 °F 51.8 °F 64% 29.54 in 10.0 mi NNW 9.2 mph 18.4 mph N/A   Mostly Cloudy
7:45 PM 64.4 °F 51.8 °F 64% 29.56 in 10.0 mi NNW 12.7 mph - N/A   Mostly Cloudy
8:45 PM 64.4 °F 51.8 °F 64% 29.57 in 10.0 mi NNW 11.5 mph - N/A   Scattered Clouds
9:50 PM 62.6 °F 50.0 °F 63% 29.56 in 10.0 mi NNW 8.1 mph - N/A   Clear
11:35 PM 59.0 °F 50.0 °F 72% 29.56 in 10.0 mi NW 8.1 mph - N/A   Clear
11:55 PM 57.2 °F 50.0 °F 77% 29.56 in 10.0 mi NW 8.1 mph - N/A   Clear